Location: Big Prairie
(40.6673°N, 82.0952°W)
Time: 19:17:24
(UTC+00:00)

USA 276 - Pass Details

Date: 03 December 2021
Orbit: 371 x 378 km, 50.0° (Epoch: 16 January)

Event Time Altitude Azimuth Distance (km) Brightness Sun altitude
Rises 23:27:58 0° 299° (WNW) 2,246 6.7 -16.0°
Reaches altitude 10° 23:30:03 10° 293° (WNW) 1,393 5.6 -16.4°
Maximum altitude 23:33:04 46° 219° (SW) 522 3.0 -16.9°
Enters shadow 23:35:09 17° 150° (SSE) 1,034 4.1 -17.3°
